Date String (YYYY-MM-DD hh:mm:ss) UTC,Instrument flags,Ambient pressure (hPa),Sample flow (lpm),Bypass flow (lpm),Sample temperature (°C),Ambient temperature (°C),ASC tube jacket temperature (°C),LED temperature (°C),Box temperature (°C),Sample RH (%),Span deviation,Mass concentration (μg/m³),Mass concentration (μg/m³),Mass concentration (μg/m³)
DateTimeUTC,F1_M11,P_M11,Q1_M11,Q2_M11,T1_M11,T2_M11,T3_M11,T4_M11,T5_M11,U1_M11,ZSPAN_M11,X0_M11,X2_M11,X1_M11
2022-10-07 22:00:00,,0836.8,5.00,0.00,26.9,25.5,00.0,35.6,28.8,22.3,-002.3,0013.67,0008.30,0007.38
2022-10-07 22:01:00,,0836.9,5.00,0.00,26.9,25.5,00.0,35.6,28.8,22.5,-002.2,0013.90,0008.33,0007.39
2022-10-07 22:02:00,,0836.9,5.00,0.00,26.9,25.5,00.0,35.6,28.8,22.5,-002.4,0014.30,0008.34,0007.40
2022-10-07 22:03:00,,0836.9,4.99,0.00,26.9,25.5,00.0,35.6,28.8,22.6,-002.3,0014.41,0008.36,0007.42
2022-10-07 22:04:00,,0836.9,5.01,0.00,26.9,25.5,00.0,35.6,28.8,22.5,-002.4,0014.49,0008.38,0007.44
2022-10-07 22:05:00,,0836.8,5.01,0.00,26.9,25.4,00.0,35.6,28.8,22.5,-002.0,0014.56,0008.44,0007.47
2022-10-07 22:06:00,,0836.8,5.00,0.00,26.9,25.5,00.0,35.6,28.8,22.3,-001.6,0014.57,0008.47,0007.50
2022-10-07 22:07:00,,0836.7,5.00,0.00,26.9,25.5,00.0,35.6,28.8,22.3,-001.4,0014.80,0008.51,0007.53
2022-10-07 22:08:00,,0836.7,5.00,0.00,26.9,25.5,00.0,35.6,28.8,22.4,-001.3,0015.07,0008.56,0007.56
2022-10-07 22:09:00,,0836.6,4.99,0.00,26.9,25.5,00.0,35.7,28.8,22.7,-001.4,0015.19,0008.55,0007.58
2022-10-07 22:10:00,,0836.6,5.02,0.00,26.9,25.5,00.0,35.7,28.8,22.6,-001.4,0015.45,0008.57,0007.60
2022-10-07 22:11:00,,0836.6,5.00,0.00,26.9,25.5,00.0,35.7,28.8,22.4,-001.6,0014.74,0008.56,0007.64
2022-10-07 22:12:00,,0836.6,5.00,0.00,26.9,25.5,00.0,35.7,28.8,22.3,-001.8,0014.68,0008.56,0007.67
2022-10-07 22:13:00,,0836.6,5.00,0.00,26.9,25.5,00.0,35.7,28.8,22.3,-001.6,0014.37,0008.58,0007.70
2022-10-07 22:14:00,,0836.5,5.00,0.00,26.9,25.5,00.0,35.7,28.8,22.3,-001.6,0014.44,0008.61,0007.73
2022-10-07 22:15:00,,0836.5,4.99,0.00,26.9,25.5,00.0,35.7,28.8,22.5,-001.4,0014.48,0008.65,0007.73
2022-10-07 22:16:00,,0836.5,5.00,0.00,26.9,25.5,00.0,35.7,28.8,22.5,-001.3,0014.60,0008.69,0007.73
2022-10-07 22:17:00,,0836.5,5.00,0.00,26.9,25.6,00.0,35.7,28.9,22.3,-001.4,0015.10,0008.74,0007.76
2022-10-07 22:18:00,,0836.5,4.99,0.00,26.9,25.6,00.0,35.7,28.9,22.3,-001.6,0014.67,0008.73,0007.78
2022-10-07 22:19:00,,0836.6,4.99,0.00,26.9,25.6,00.0,35.7,28.9,22.3,-001.4,0014.87,0008.70,0007.77
2022-10-07 22:20:00,,0836.6,5.00,0.00,27.0,25.6,00.0,35.7,28.9,22.3,-001.6,0014.83,0008.78,0007.79
2022-10-07 22:21:00,,0836.7,5.01,0.00,27.0,25.6,00.0,35.7,28.9,22.4,-001.8,0014.53,0008.78,0007.80
2022-10-07 22:22:00,,0836.6,4.99,0.00,27.0,25.6,00.0,35.7,28.9,22.4,-001.7,0014.66,0008.82,0007.82
2022-10-07 22:23:00,,0836.6,4.99,0.00,27.0,25.6,00.0,35.7,28.9,22.7,-001.7,0015.27,0008.81,0007.81
2022-10-07 22:24:00,,0836.6,5.02,0.00,27.0,25.6,00.0,35.7,28.9,22.8,-001.9,0015.35,0008.81,0007.80
2022-10-07 22:25:00,,0836.6,5.00,0.00,27.0,25.6,00.0,35.7,28.9,22.7,-002.0,0015.30,0008.79,0007.80
2022-10-07 22:26:00,,0836.6,5.00,0.00,27.0,25.6,00.0,35.7,28.9,22.7,-002.0,0015.02,0008.73,0007.81
2022-10-07 22:27:00,,0836.6,4.99,0.00,27.0,25.6,00.0,35.7,28.9,22.5,-002.2,0014.94,0008.71,0007.82
2022-10-07 22:28:00,,0836.6,5.01,0.00,27.0,25.6,00.0,35.7,28.9,22.3,-002.3,0014.57,0008.65,0007.79
2022-10-07 22:29:00,,0836.6,4.99,0.00,27.0,25.6,00.0,35.7,28.9,22.4,-002.1,0014.71,0008.63,0007.77
2022-10-07 22:30:00,,0836.7,4.99,0.00,27.0,25.6,00.0,35.8,29.0,22.6,-002.0,0014.27,0008.61,0007.76
2022-10-07 22:31:00,,0836.7,5.02,0.00,27.0,25.6,00.0,35.8,29.0,22.4,-001.6,0014.17,0008.55,0007.78
2022-10-07 22:32:00,,0836.7,5.00,0.00,27.0,25.6,00.0,35.8,29.0,22.3,-001.3,0014.23,0008.57,0007.78
2022-10-07 22:33:00,,0836.7,5.00,0.00,27.0,25.7,00.0,35.8,29.0,22.1,-001.3,0014.41,0008.60,0007.77
2022-10-07 22:34:00,,0836.7,5.01,0.00,27.0,25.7,00.0,35.8,29.0,22.2,-001.2,0013.92,0008.63,0007.76
2022-10-07 22:35:00,,0836.7,5.00,0.00,27.0,25.7,00.0,35.8,29.0,22.2,-001.1,0013.57,0008.61,0007.75
2022-10-07 22:36:00,,0836.7,4.99,0.00,27.0,25.7,00.0,35.8,29.0,22.4,-001.1,0013.84,0008.57,0007.73
2022-10-07 22:37:00,,0836.8,5.01,0.00,27.0,25.7,00.0,35.8,29.0,22.3,-001.4,0013.84,0008.53,0007.69
2022-10-07 22:38:00,,0836.9,5.00,0.00,27.0,25.7,00.0,35.8,29.0,22.2,-001.5,0013.87,0008.51,0007.67
2022-10-07 22:39:00,,0836.9,4.99,0.00,27.0,25.7,00.0,35.8,29.0,22.0,-001.4,0014.02,0008.49,0007.64
2022-10-07 22:40:00,,0836.9,5.00,0.00,27.0,25.7,00.0,35.8,29.0,21.9,-001.5,0013.98,0008.44,0007.62
2022-10-07 22:41:00,,0836.7,5.00,0.00,27.1,25.7,00.0,35.8,29.0,21.9,-001.4,0013.94,0008.41,0007.61
2022-10-07 22:42:00,,0836.7,4.99,0.00,27.1,25.8,00.0,35.8,29.0,22.0,-001.2,0013.82,0008.41,0007.58
2022-10-07 22:43:00,,0836.7,5.01,0.00,27.1,25.8,00.0,35.8,29.0,21.9,-001.2,0013.76,0008.35,0007.55
2022-10-07 22:44:00,,0836.6,5.00,0.00,27.1,25.8,00.0,35.8,29.0,21.8,-001.1,0013.70,0008.28,0007.52
2022-10-07 22:45:00,,0836.7,4.99,0.00,27.1,25.8,00.0,35.8,29.0,21.8,-001.1,0013.86,0008.22,0007.49
2022-10-07 22:46:00,,0836.6,5.00,0.00,27.1,25.8,00.0,35.8,29.0,21.7,-001.2,0013.84,0008.20,0007.46
2022-10-07 22:47:00,,0836.6,5.01,0.00,27.1,25.8,00.0,35.8,29.0,21.5,-001.0,0013.94,0008.20,0007.46
2022-10-07 22:48:00,,0836.6,4.99,0.00,27.1,25.8,00.0,35.8,29.0,21.5,-000.8,0014.19,0008.21,0007.47
2022-10-07 22:49:00,,0836.6,4.99,0.00,27.1,25.8,00.0,35.8,29.0,21.6,-000.8,0014.25,0008.23,0007.45
2022-10-07 22:50:00,,0836.6,5.02,0.00,27.1,25.8,00.0,35.8,29.0,21.6,-000.7,0014.05,0008.20,0007.43
2022-10-07 22:51:00,,0836.7,5.00,0.00,27.1,25.8,00.0,35.8,29.0,21.6,-000.6,0013.75,0008.22,0007.41
2022-10-07 22:52:00,,0836.7,4.99,0.00,27.1,25.8,00.0,35.8,29.0,21.7,-000.4,0013.63,0008.19,0007.38
2022-10-07 22:53:00,,0836.7,5.00,0.00,27.1,25.8,00.0,35.9,29.0,22.0,-000.7,0013.61,0008.17,0007.36
2022-10-07 22:54:00,,0836.7,5.02,0.00,27.1,25.8,00.0,35.9,29.0,22.0,-001.0,0013.42,0008.14,0007.35
2022-10-07 22:55:00,,0836.7,4.99,0.00,27.1,25.8,00.0,35.9,29.0,22.0,-001.0,0013.17,0008.14,0007.34
2022-10-07 22:56:00,,0836.7,5.00,0.00,27.1,25.8,00.0,35.9,29.1,22.1,-000.9,0012.90,0008.14,0007.36
2022-10-07 22:57:00,,0836.7,5.01,0.00,27.1,25.7,00.0,35.9,29.1,22.0,-000.9,0012.76,0008.14,0007.37
2022-10-07 22:58:00,,0836.7,4.99,0.00,27.1,25.7,00.0,35.9,29.0,22.2,-001.0,0012.45,0008.16,0007.38
2022-10-07 22:59:00,,0836.7,4.99,0.00,27.1,25.6,00.0,35.9,29.0,22.2,-000.9,0011.97,0008.18,0007.38
